sat.trackr.live / text

‹ back to catalog

QIANFAN-163

NORAD 69325 · 2026-121A

PAYLOAD ACTIVE UNKNOWN

§ Identity

Operator
Country
PRC
Launch date
2026-06-01
Launch site
JSC
Launch vehicle
Mass (kg)
RCS (m²)

External: N2YO · Heavens-Above · Gunter

§ Orbital elements

Epoch: 2026-09-20T00:46:12.538848Z

Period
106.59 min
Inclination
89.0100°
Eccentricity
0.0002414
Mean motion
13.51022063 rev/d
Perigee alt
1,066.7 km
Apogee alt
1,070.3 km
Semi-major
7,446.6 km
B*
1.4552e-6
RAAN
291.0724°
Arg perigee
119.9547°
Mean anomaly
240.1844°
Rev number
1,497

§ Raw data

QIANFAN-1631 69325U 26121A   26263.03208957  .00000013  00000+0  14552-5 0  99952 69325  89.0100 291.0724 0002414 119.9547 240.1844 13.51022063 14974

JSON: /api/v1/satellites/69325 · /tle

For live sub-satellite position, see the globe view (requires WebGL).

§ Visibility from observer

Set your observer location to see the next 7 days of passes ≥ 10°. The values pass through the URL so the page stays shareable.

No JS? Fill the form by hand. The geolocation button needs JavaScript.